Regional Weather Roundup
Issued by NWS

Home | Current Version | Previous Version | Graphics & Text | Print | Product List | Glossary On
Versions: 1 2 3 4 5 6 7 8 9 10 11 12 13 14 15 16 17 18 19 20 21 22 23 24 25 26 27 28 29 30 31 32 33 34 35 36 37 38 39 40 41 42 43 44 45 46 47 48 49 50
000
ASUS43 KIND 132259
RWRIN

WEATHER ROUNDUP FOR INDIANA
NATIONAL WEATHER SERVICE INDIANAPOLIS IN
700 PM EDT SUN JUL 13 2014

NOTE: "FAIR" INDICATES FEW OR NO CLOUDS BELOW 12,000 FEET WITH NO
SIGNIFICANT WEATHER AND/OR OBSTRUCTIONS TO VISIBILITY.

* - STATION DOES NOT REPORT WEATHER SUCH AS PRECIPITATION OR FOG.

+ - STATION NOT QUALITY CONTROLLED BY THE NATIONAL WEATHER SERVICE.
    USE DATA WITH CAUTION...ESPECIALLY DEWPOINT AND RELATIVE
    HUMIDITY OBSERVATIONS.

INZ001>003-010>013-019-020-140000-
NORTHWEST INDIANA

CITY           SKY/WX    TMP DP  RH WIND       PRES   REMARKS
GARY /AIRPORT/ MOSUNNY   84  59  42 W14       29.89F
VALPARAISO     SUNNY     82  61  48 W8        29.90F

$$

LMZ046-743>745-140000-
SOUTHERN LAKE MICHIGAN

STATION/POSITION TIME  TEMP WIND        PRES
                       AIR  DIR/SP/G
                 (UTC) (F)  (DEG/KT/KT) (MB)
MICHIGAN CITY    2200   79  210/  3/  4   N/A

$$

INZ004-005-014>016-021>024-140000-
NORTH CENTRAL INDIANA

CITY           SKY/WX    TMP DP  RH WIND       PRES   REMARKS
GOSHEN         SUNNY     81  61  50 W9        29.91S
SOUTH BEND     SUNNY     82  59  45 W3        29.91F

$$

INZ006>009-017-018-025>027-140000-
NORTHEAST INDIANA

CITY           SKY/WX    TMP DP  RH WIND       PRES   REMARKS
ANGOLA *+      SUNNY     82  63  51 W7        29.90S
FORT WAYNE     MOSUNNY   83  63  50 NW8       29.91S

$$

INZ028-029-035-036-043>045-051>053-140000-
WEST CENTRAL INDIANA

CITY           SKY/WX    TMP DP  RH WIND       PRES   REMARKS
GREENCASTLE +  PTSUNNY   81  70  69 W5        29.94S
LAFAYETTE      MOSUNNY   81  67  62 W7        29.92S
TERRE HAUTE    PTSUNNY   83  72  69 NW6       29.93R

$$

INZ030>032-037>040-046>048-054>057-064-065-140000-
CENTRAL INDIANA

CITY           SKY/WX    TMP DP  RH WIND       PRES   REMARKS
INDIANAPOLIS   PTSUNNY   82  69  64 W13       29.92S
-EAGLE CREEK   MOSUNNY   82  67  60 W12       29.92S
KOKOMO *+      SUNNY     82  66  57 W12       29.92S
MT COMFORT *+  SUNNY     84  72  65 W12       29.93S
SHELBYVILLE    MOSUNNY   86  72  62 NW12      29.92S

$$

INZ033-034-041-042-049-050-058-059-140000-
EAST CENTRAL INDIANA

CITY           SKY/WX    TMP DP  RH WIND       PRES   REMARKS
MUNCIE         SUNNY     83  68  60 W12       29.92S

$$

INZ060-061-067>069-081>083-085>088-140000-
SOUTHWEST INDIANA

CITY           SKY/WX    TMP DP  RH WIND       PRES   REMARKS
EVANSVILLE     PTSUNNY   92  72  51 SW14      29.92S HX  99
HUNTINGBURG *+ SUNNY     90  72  55 W9        29.92S HX  96

$$

INZ062-063-066-070>080-084-089>092-140000-
SOUTH CENTRAL AND SOUTHEAST INDIANA

CITY           SKY/WX    TMP DP  RH WIND       PRES   REMARKS
BLOOMINGTON    LGT RAIN  81  74  79 CALM      29.93F

$$




USA.gov is the U.S. government's official web portal to all federal, state and local government web resources and services.